{"data":{"norad_id":61198,"intl_designator":"2024-170D","name":"TIANQI-32","alt_names":[],"object_type":"PAYLOAD","status":"ACTIVE","operator":null,"country":"PRC","launch_date":"2024-09-20","launch_site_code":"XICLF","launch_vehicle":null,"mission":null,"orbit_class":"UNKNOWN","rcs_meters":null,"size_class":null,"mass_kg":null,"dimensions":null,"purposes":[],"wikipedia_slug":null,"has_3d_model":false,"image_url":null,"decayed_at":null,"tle_current":{"epoch":"2026-09-22T20:59:59.391744Z","epoch_age_seconds":89493,"freshness":"FRESH","line1":"1 61198U 24170D   26265.87499296 -.00000031  00000+0  67615-4 0  9997","line2":"2 61198  44.8606  62.8470 0008149 177.1679 182.9199 13.97721028 98200","mean_motion":13.97721028,"eccentricity":0.0008149,"inclination_deg":44.8606,"raan_deg":62.847,"arg_perigee_deg":177.1679,"mean_anomaly_deg":182.9199,"bstar":6.7615e-5,"rev_number":9820,"period_min":103.02485053548,"perigee_km":895.76520516562,"apogee_km":907.62987950272,"semimajor_km":7279.8345423342,"source":"CELESTRAK","updated_at":"2026-09-23T09:00:20.816370Z"}}}